[[{"header":{"parameterUnit":"m.s-1","parameterCategory":1,"la1":30.2991,"la2":30.254,"lo1":-89.0895,"lo2":-89.0444,"dy":0.0017,"dx":0.0017,"nx":28,"ny":28,"refTime":"2025-11-24T03:00:00:Z","depth":0,"parameterNumber":2,"parameterNumberName":"U-component_of_WINDS"},"data":[0,0,0,0,0,0,0,0,0,0,0,0,0,0,0,0,0,0,0,0,0,0,0,0,0,0,0,0,0,0,0,0,0,0,0,0,0,0,0,0,0,0,0,0,0,0,0,0,0,0,0,0,0,0,0,0,0,0,-3.2215,-3.2215,0,-3.2281,-3.2282,-3.2283,-3.2249,-3.2247,-3.2245,-3.2244,-3.231,-3.2313,-3.2317,0,0,0,0,0,0,0,0,0,0,0,0,0,-3.2059,-3.2062,-3.2215,-3.2216,-3.2216,-3.2281,-3.2282,-3.2283,-3.2249,-3.2247,-3.2245,-3.2243,-3.2309,-3.2313,-3.2317,0,0,0,0,0,0,0,0,0,0,0,0,0,-3.2126,-3.2063,-3.2215,-3.2207,-3.2207,-3.2281,-3.2282,-3.2283,-3.225,-3.2247,-3.2244,-3.2242,-3.2308,-3.2313,-3.2318,-3.2402,0,0,-3.2333,-3.2336,0,0,0,0,0,0,0,0,-3.2122,-3.2132,-3.2208,-3.2208,-3.2208,-3.2254,-3.2251,-3.2323,-3.225,-3.2234,-3.2244,-3.2241,-3.2294,-3.23,-3.2318,-3.2405,-3.2407,-3.2334,-3.2337,-3.2339,-3.234,0,0,0,0,0,0,0,-3.2118,-3.2129,-3.2241,-3.2209,-3.2209,-3.2201,-3.2208,-3.2265,-3.2277,-3.2235,-3.2232,-3.2241,-3.2293,-3.2313,-3.2319,-3.2408,-3.2334,-3.2338,-3.2341,-3.2343,-3.2568,-3.2571,0,0,0,0,0,0,-3.2114,-3.2125,-3.2239,-3.2243,-3.2158,-3.2206,-3.2213,-3.2242,-3.2277,-3.2279,-3.2243,-3.2239,-3.2306,-3.2313,-3.2321,-3.2421,-3.2339,-3.2344,-3.2347,-3.2565,-3.2569,-3.2572,0,0,0,0,0,0,-3.211,-3.2124,-3.2236,-3.2184,-3.2197,-3.2211,-3.2244,-3.2245,-3.2264,-3.2283,-3.2285,-3.2261,-3.2304,-3.2314,-3.2382,-3.2423,-3.2346,-3.2351,-3.2562,-3.2566,-3.257,-3.2622,0,0,0,0,0,0,-3.2106,-3.2123,-3.2155,-3.2185,-3.22,-3.2296,-3.2246,-3.2248,-3.2273,-3.2269,-3.23,-3.2303,-3.2302,-3.2375,-3.2387,-3.2429,-3.2355,-3.2558,-3.2564,-3.2569,-3.2617,-3.2628,-3.2637,0,0,0,0,0,-3.2101,-3.2166,-3.2156,-3.217,-3.224,-3.2298,-3.2307,-3.2306,-3.2277,-3.2309,-3.2321,-3.2302,-3.2417,-3.2382,-3.2396,-3.2439,-3.2556,-3.2562,-3.2569,-3.2612,-3.2626,-3.2637,0,0,0,0,0,0,-3.214,-3.217,-3.2159,-3.2237,-3.2265,-3.2292,-3.2332,-3.232,-3.2357,-3.2351,-3.2348,-3.2355,-3.2425,-3.244,-3.24,-3.2523,-3.2482,-3.2492,-3.251,-3.2523,-3.2533,-3.2527,-3.2359,0,0,0,0,0,-3.2158,-3.2203,-3.2227,-3.2292,-3.2308,-3.2318,-3.2343,-3.234,-3.2369,-3.2381,-3.2398,-3.2427,-3.247,-3.2498,-3.2538,-3.262,-3.2626,-3.2657,-3.2667,-3.2675,-3.2683,-3.2727,-3.2741,-3.2594,-3.2594,-3.2593,0,0,-3.2195,-3.2217,-3.2245,-3.2301,-3.2323,-3.2369,-3.2328,-3.2379,-3.2413,-3.2388,-3.2453,-3.2467,-3.2499,-3.2575,-3.2609,-3.2589,-3.2726,-3.2684,-3.269,-3.2693,-3.2735,-3.2749,-3.2762,-3.2598,-3.2597,-3.2597,0,0,-3.2285,-3.2307,-3.2364,-3.2387,-3.2421,-3.2428,-3.2442,-3.2472,-3.248,-3.2546,-3.2528,-3.257,-3.2644,-3.2667,-3.2689,-3.2792,-3.2775,-3.2805,-3.2857,-3.29,-3.2912,-3.2922,-3.2958,-3.2971,-3.2813,-3.2813,-3.2813,0,-3.2326,-3.2395,-3.2395,-3.2447,-3.2472,-3.2454,-3.2512,-3.2534,-3.258,-3.2597,-3.2575,-3.2668,-3.2688,-3.2769,-3.2794,-3.2813,-3.2828,-3.28,-3.291,-3.2921,-3.293,-3.2964,-3.2977,-3.2817,-3.2816,-3.2816,-3.2815,0,-3.2444,-3.2492,-3.2535,-3.2579,-3.261,-3.2665,-3.2673,-3.2704,-3.2699,-3.2709,-3.2776,-3.2801,-3.2846,-3.2865,-3.2861,-3.2946,-3.2932,-3.2911,-3.2869,-3.2948,-3.2979,-3.2992,-3.2821,-3.282,-3.2819,-3.2818,0,0,-3.2557,-3.2603,-3.2618,-3.2639,-3.2676,-3.2714,-3.2769,-3.2814,-3.284,-3.2873,-3.2918,-3.2983,-3.2963,-3.2988,-3.2987,-3.3025,-3.3104,-3.2999,-3.2999,-3.3016,-3.3198,-3.3213,-3.3228,-3.3095,-3.3097,-3.3099,-3.3195,0,-3.2649,-3.2744,-3.2747,-3.2834,-3.2879,-3.2864,-3.2912,-3.294,-3.2951,-3.2991,-3.3003,-3.3048,-3.302,-3.3035,-3.3073,-3.3086,-3.314,-3.308,-3.3136,-3.3138,-3.3125,-3.3244,-3.326,-3.3349,-3.3208,-3.321,-3.3211,0,-3.2767,-3.2805,-3.2897,-3.2929,-3.2948,-3.2991,-3.3033,-3.3071,-3.3104,-3.3109,-3.3139,-3.3132,-3.3188,-3.3147,-3.3224,-3.3183,-3.3207,-3.3218,-3.3221,-3.3224,-3.3177,-3.3249,-3.3377,-3.339,-3.3231,-3.323,-3.3228,0,-3.2839,-3.2913,-3.2977,-3.2996,-3.3035,-3.3066,-3.3083,-3.3113,-3.3141,-3.3178,-3.3196,-3.3239,-3.3262,-3.3296,-3.3302,-3.3272,-3.3379,-3.3339,-3.3384,-3.3384,-3.3405,-3.3403,-3.3537,-3.3425,-3.3424,-3.3424,-3.3424,0,-3.2939,-3.2996,-3.301,-3.305,-3.3113,-3.3116,-3.3179,-3.3194,-3.3222,-3.3264,-3.3255,-3.3295,-3.3301,-3.3342,-3.3347,-3.341,-3.3421,-3.3427,-3.3427,-3.3426,-3.3425,-3.3439,-3.3433,-3.3428,-3.3427,-3.3426,-3.3426,0,-3.3029,-3.3041,-3.311,-3.3142,-3.3152,-3.3197,-3.3225,-3.3263,-3.3275,-3.3328,-3.3341,-3.3359,-3.3408,-3.3418,-3.3475,-3.3479,-3.3553,-3.3548,-3.3542,-3.354,-3.3585,-3.358,-3.3731,-3.375,-3.3627,-3.3628,-3.3629,0,-3.309,-3.3134,-3.3172,-3.32,-3.3219,-3.3264,-3.3293,-3.3299,-3.3329,-3.337,-3.3403,-3.3451,-3.3489,-3.3568,-3.3586,-3.363,-3.3625,-3.3675,-3.3631,-3.363,-3.3624,-3.362,-3.3624,-3.3682,-3.3684,-3.3685,-3.3686,0,-3.3199,-3.3203,-3.3244,-3.3289,-3.3323,-3.3358,-3.3391,-3.3414,-3.3425,-3.3459,-3.3509,-3.3539,-3.3599,-3.3647,-3.3691,-3.371,-3.37,-3.37,-3.3713,-3.3711,-3.3705,-3.3707,-3.3562,-3.3696,-3.3695,-3.3694,-3.3693,-3.3693,-3.3275,-3.3313,-3.3346,-3.3392,-3.3418,-3.345,-3.3487,-3.3505,-3.3547,-3.3595,-3.3597,-3.3652,-3.3685,-3.3744,-3.3766,-3.3808,-3.3793,-3.3811,-3.3815,-3.3819,-3.3823,-3.3701,-3.3817,-3.3817,-3.3816,-3.3816,-3.3816,0,-3.3381,-3.3402,-3.3445,-3.3493,-3.353,-3.3519,-3.3556,-3.3587,-3.3635,-3.3667,-3.3706,-3.3764,-3.3811,-3.3834,-3.388,-3.391,-3.3907,-3.3922,-3.3918,-3.3923,-3.3835,-3.3819,-3.3924,-3.3924,-3.3924,-3.3924,-3.3924,-3.3924,-3.344,-3.3504,-3.3513,-3.3589,-3.361,-3.3664,-3.3686,-3.3715,-3.3741,-3.3806,-3.3845,-3.386,-3.3889,-3.3938,-3.398,-3.3986,-3.4002,-3.402,-3.4023,-3.394,-3.3929,-3.3918,-3.3903,-3.4024,-3.4024,-3.4107,-3.4107,-3.4108]},{"header":{"parameterUnit":"m.s-1","parameterCategory":1,"la1":30.2991,"la2":30.254,"lo1":-89.0895,"lo2":-89.0444,"dy":0.0017,"dx":0.0017,"nx":28,"ny":28,"refTime":"2025-11-24T03:00:00:Z","depth":0,"parameterNumber":3,"parameterNumberName":"V-component_of_WINDS"},"data":[0,0,0,0,0,0,0,0,0,0,0,0,0,0,0,0,0,0,0,0,0,0,0,0,0,0,0,0,0,0,0,0,0,0,0,0,0,0,0,0,0,0,0,0,0,0,0,0,0,0,0,0,0,0,0,0,0,0,2.2103,2.2105,0,2.2225,2.2226,2.2227,2.2273,2.2272,2.2272,2.2271,2.2391,2.2394,2.2398,0,0,0,0,0,0,0,0,0,0,0,0,0,2.1908,2.1912,2.2103,2.2105,2.2106,2.2224,2.2226,2.2228,2.2273,2.2272,2.2272,2.2271,2.239,2.2394,2.2398,0,0,0,0,0,0,0,0,0,0,0,0,0,2.2007,2.1913,2.2103,2.2143,2.2148,2.2224,2.2226,2.2228,2.2273,2.2272,2.2272,2.2271,2.2388,2.2393,2.2398,2.2442,0,0,2.2415,2.2417,0,0,0,0,0,0,0,0,2.2002,2.2014,2.2136,2.2141,2.2146,2.2233,2.2201,2.23,2.2273,2.2225,2.2271,2.2271,2.2338,2.2348,2.2371,2.2448,2.2453,2.2415,2.2418,2.2421,2.2422,0,0,0,0,0,0,0,2.1995,2.2009,2.2151,2.2137,2.2144,2.2154,2.2168,2.222,2.2283,2.2229,2.2233,2.2247,2.2341,2.2366,2.2375,2.2455,2.2415,2.242,2.2423,2.2425,2.2576,2.2576,0,0,0,0,0,0,2.1982,2.2003,2.2147,2.2155,2.2071,2.2158,2.2173,2.2206,2.2283,2.2294,2.2247,2.2248,2.2358,2.2368,2.2379,2.2437,2.2421,2.2425,2.2428,2.2575,2.2576,2.2577,0,0,0,0,0,0,2.1977,2.1994,2.2142,2.208,2.21,2.2162,2.2198,2.2208,2.2234,2.2296,2.2308,2.2262,2.2358,2.2372,2.2427,2.2442,2.2428,2.2433,2.2574,2.2575,2.2576,2.2553,0,0,0,0,0,0,2.1972,2.1992,2.201,2.208,2.2103,2.2189,2.2199,2.2211,2.2243,2.2246,2.2313,2.2323,2.2358,2.2419,2.2432,2.2449,2.2437,2.2573,2.2574,2.2576,2.2553,2.2553,2.2554,0,0,0,0,0,2.1964,2.1997,2.2011,2.2028,2.2127,2.219,2.2203,2.2244,2.2244,2.2262,2.2303,2.2321,2.2438,2.2424,2.244,2.2458,2.2572,2.2574,2.2576,2.2552,2.2553,2.2554,0,0,0,0,0,0,2.1924,2.2007,2.2023,2.2079,2.2128,2.2198,2.2222,2.2243,2.2291,2.2291,2.2338,2.2353,2.2405,2.2437,2.242,2.2506,2.2506,2.2511,2.2483,2.2484,2.2485,2.2476,2.2441,0,0,0,0,0,2.1922,2.1968,2.2037,2.208,2.2104,2.2159,2.2187,2.2215,2.2266,2.2287,2.2331,2.2379,2.2427,2.2457,2.2505,2.2557,2.2573,2.2578,2.2578,2.2578,2.2582,2.2615,2.2618,2.2583,2.2583,2.2583,0,0,2.1918,2.1969,2.1994,2.2073,2.2114,2.216,2.2175,2.2222,2.2257,2.2293,2.235,2.2384,2.2441,2.2496,2.2522,2.2524,2.2596,2.2581,2.258,2.2585,2.2617,2.262,2.2623,2.2584,2.2584,2.2584,0,0,2.1934,2.1976,2.2019,2.206,2.2122,2.2159,2.2169,2.2237,2.2262,2.2319,2.2348,2.2389,2.247,2.251,2.2541,2.2575,2.2594,2.2589,2.2592,2.2623,2.2626,2.2629,2.2643,2.2647,2.2593,2.2593,2.2593,0,2.192,2.1992,2.2037,2.2084,2.2118,2.2156,2.2199,2.2236,2.231,2.2332,2.2334,2.2438,2.2479,2.2545,2.2554,2.2577,2.259,2.2582,2.2622,2.2625,2.2629,2.2642,2.2647,2.2592,2.2592,2.2592,2.2592,0,2.1973,2.2022,2.2048,2.2122,2.2159,2.2203,2.2255,2.2287,2.2312,2.2348,2.2407,2.2458,2.2517,2.2535,2.2558,2.2605,2.2604,2.2613,2.2615,2.263,2.2644,2.265,2.2591,2.2591,2.2591,2.2591,0,0,2.1965,2.2066,2.2074,2.2109,2.2182,2.2221,2.2267,2.2328,2.2355,2.2405,2.2446,2.2515,2.2525,2.256,2.2588,2.2615,2.2642,2.2621,2.2623,2.2625,2.2698,2.2692,2.2697,2.2655,2.2656,2.2657,2.2694,0,2.1992,2.2079,2.2122,2.219,2.2237,2.2274,2.2315,2.2364,2.24,2.2444,2.2483,2.2532,2.254,2.2562,2.2591,2.2632,2.2657,2.263,2.2693,2.2694,2.2679,2.2704,2.2697,2.273,2.2699,2.27,2.2701,0,2.2034,2.2087,2.2161,2.2231,2.2252,2.2288,2.2348,2.239,2.2447,2.2471,2.2512,2.254,2.2591,2.2588,2.2659,2.264,2.2668,2.2692,2.2695,2.2703,2.2699,2.2714,2.2741,2.2746,2.271,2.2709,2.2708,0,2.2024,2.2113,2.2169,2.2198,2.228,2.2305,2.234,2.2397,2.2431,2.2483,2.2506,2.2562,2.2593,2.2636,2.2679,2.2673,2.2746,2.2747,2.2767,2.2766,2.2781,2.278,2.2814,2.2798,2.2797,2.2797,2.2797,0,2.2049,2.2093,2.2166,2.22,2.2251,2.23,2.2348,2.2386,2.2436,2.2479,2.2514,2.2552,2.2607,2.2652,2.2686,2.274,2.2753,2.2774,2.2783,2.2772,2.2769,2.2791,2.279,2.2799,2.2798,2.2798,2.2798,0,2.2046,2.2096,2.216,2.2235,2.2254,2.2288,2.2352,2.2387,2.2425,2.2478,2.2494,2.2553,2.2609,2.2657,2.2729,2.2752,2.2809,2.2818,2.279,2.2795,2.2814,2.2812,2.2864,2.2875,2.2849,2.285,2.285,0,2.2059,2.2094,2.2173,2.2205,2.2241,2.2292,2.2328,2.2378,2.2414,2.2483,2.251,2.2569,2.2619,2.2706,2.2755,2.2811,2.2823,2.2838,2.2832,2.282,2.2825,2.2823,2.2828,2.2838,2.2838,2.2838,2.2838,0,2.2078,2.2102,2.2154,2.2216,2.2259,2.2309,2.2359,2.2383,2.2443,2.2482,2.2541,2.258,2.2656,2.2714,2.2776,2.2812,2.2835,2.284,2.2848,2.2837,2.2821,2.2832,2.2792,2.2838,2.2838,2.2838,2.2838,2.2838,2.2084,2.2118,2.218,2.2237,2.2282,2.2329,2.2367,2.2412,2.2462,2.253,2.2556,2.2616,2.2674,2.276,2.2796,2.2844,2.2847,2.2858,2.2861,2.2864,2.2863,2.2813,2.2855,2.2855,2.2855,2.2855,2.2855,0,2.2106,2.2149,2.2201,2.2273,2.2319,2.2339,2.2397,2.2433,2.2487,2.254,2.2589,2.2658,2.2716,2.2771,2.2831,2.2859,2.2871,2.2873,2.2871,2.288,2.2856,2.2844,2.2862,2.2862,2.2862,2.2862,2.2862,2.2862,2.2123,2.2183,2.2214,2.2297,2.2339,2.24,2.2432,2.2476,2.2519,2.2595,2.2644,2.268,2.2735,2.28,2.2853,2.2868,2.2889,2.2888,2.2906,2.2882,2.2881,2.288,2.2869,2.2892,2.2892,2.2926,2.2926,2.2927]}]]